[[{"header":{"parameterUnit":"m.s-1","parameterCategory":1,"la1":30.2991,"la2":30.254,"lo1":-89.0895,"lo2":-89.0444,"dy":0.0017,"dx":0.0017,"nx":28,"ny":28,"refTime":"2025-12-05T03:00:00:Z","depth":0,"parameterNumber":2,"parameterNumberName":"U-component_of_WINDS"},"data":[0,0,0,0,0,0,0,0,0,0,0,0,0,0,0,0,0,0,0,0,0,0,0,0,0,0,0,0,0,0,0,0,0,0,0,0,0,0,0,0,0,0,0,0,0,0,0,0,0,0,0,0,0,0,0,0,0,0,0.0884,0.0883,0,0.0829,0.0829,0.0828,0.0817,0.0817,0.0818,0.0818,0.0761,0.0759,0.0757,0,0,0,0,0,0,0,0,0,0,0,0,0,0.0979,0.0977,0.0884,0.0883,0.0883,0.0829,0.0829,0.0828,0.0817,0.0817,0.0818,0.0818,0.0762,0.0759,0.0757,0,0,0,0,0,0,0,0,0,0,0,0,0,0.0932,0.0976,0.0884,0.0871,0.0869,0.083,0.0829,0.0828,0.0817,0.0817,0.0818,0.0819,0.0762,0.076,0.0757,0.0726,0,0,0.0748,0.0747,0,0,0,0,0,0,0,0,0.0935,0.0929,0.0873,0.0872,0.087,0.0831,0.0841,0.0794,0.0817,0.0837,0.0818,0.0819,0.0784,0.0779,0.0767,0.0724,0.0721,0.0748,0.0746,0.0745,0.0744,0,0,0,0,0,0,0,0.0938,0.0931,0.0862,0.0873,0.087,0.0867,0.0861,0.0832,0.0807,0.0835,0.0834,0.0828,0.0783,0.077,0.0766,0.072,0.0748,0.0745,0.0743,0.0742,0.0649,0.0648,0,0,0,0,0,0,0.0944,0.0934,0.0864,0.0861,0.0904,0.0865,0.0859,0.0842,0.0807,0.0803,0.0827,0.0827,0.0775,0.0769,0.0764,0.0726,0.0745,0.0742,0.074,0.065,0.0649,0.0648,0,0,0,0,0,0,0.0946,0.0938,0.0866,0.0897,0.0888,0.0863,0.0845,0.0841,0.0828,0.0802,0.0797,0.0819,0.0775,0.0768,0.0736,0.0724,0.0741,0.0738,0.0651,0.065,0.0649,0.065,0,0,0,0,0,0,0.0948,0.0938,0.0927,0.0897,0.0886,0.0839,0.0844,0.084,0.0824,0.0823,0.0793,0.0788,0.0775,0.074,0.0733,0.072,0.0736,0.0652,0.065,0.0649,0.0651,0.0649,0.0647,0,0,0,0,0,0.0952,0.0929,0.0926,0.0918,0.0871,0.0839,0.0833,0.0818,0.0823,0.0811,0.0794,0.0789,0.0726,0.0737,0.0729,0.0715,0.0652,0.0651,0.0649,0.0651,0.0649,0.0647,0,0,0,0,0,0,0.0957,0.0924,0.0921,0.0888,0.0866,0.0837,0.0821,0.0816,0.0792,0.0793,0.0776,0.0769,0.0738,0.0723,0.0736,0.0684,0.069,0.0686,0.0694,0.0692,0.069,0.0694,0.0733,0,0,0,0,0,0.0954,0.0931,0.0904,0.0877,0.0867,0.0846,0.0831,0.0822,0.0799,0.079,0.077,0.0747,0.0723,0.0706,0.0682,0.0649,0.0642,0.0635,0.0633,0.0632,0.0629,0.0611,0.0607,0.0643,0.0643,0.0643,0,0,0.0948,0.0928,0.0914,0.0878,0.086,0.0836,0.0838,0.0813,0.0795,0.0786,0.0754,0.0739,0.0713,0.068,0.0665,0.0667,0.0618,0.063,0.0629,0.0627,0.0608,0.0605,0.0602,0.0642,0.0642,0.0642,0,0,0.0925,0.0908,0.0883,0.0866,0.0839,0.0826,0.082,0.0792,0.0781,0.075,0.0742,0.0721,0.0679,0.066,0.0645,0.0616,0.0611,0.0609,0.06,0.0582,0.0579,0.0576,0.0566,0.0562,0.0606,0.0606,0.0606,0,0.0921,0.0885,0.0871,0.0847,0.0831,0.0822,0.0797,0.0781,0.0747,0.0736,0.074,0.0687,0.0668,0.0631,0.0624,0.0613,0.0605,0.0612,0.0581,0.0578,0.0575,0.0565,0.0561,0.0606,0.0606,0.0606,0.0606,0,0.0881,0.0857,0.084,0.0809,0.0791,0.0767,0.0749,0.0733,0.0726,0.0712,0.068,0.0658,0.0629,0.062,0.0612,0.0582,0.0584,0.0584,0.059,0.0572,0.0562,0.0558,0.0606,0.0606,0.0606,0.0606,0,0,0.0859,0.0821,0.0815,0.0801,0.0771,0.0752,0.0727,0.0699,0.0686,0.0663,0.0642,0.0607,0.0607,0.059,0.0581,0.0565,0.0544,0.0567,0.0566,0.0563,0.0509,0.0508,0.0504,0.0541,0.054,0.0539,0.0511,0,0.0832,0.0787,0.0775,0.0737,0.0714,0.0706,0.0684,0.0664,0.0651,0.0629,0.0614,0.059,0.0592,0.0582,0.0566,0.055,0.0532,0.0552,0.052,0.0519,0.0526,0.0499,0.0498,0.0472,0.0507,0.0506,0.0506,0,0.0794,0.0772,0.0732,0.0706,0.0696,0.0677,0.065,0.063,0.0607,0.0598,0.058,0.0572,0.0546,0.0554,0.0517,0.0531,0.0517,0.0507,0.0506,0.0502,0.0511,0.0493,0.0463,0.0459,0.0499,0.05,0.05,0,0.0781,0.0741,0.0712,0.07,0.0669,0.0656,0.0642,0.062,0.0604,0.0582,0.0571,0.0546,0.0531,0.0512,0.0497,0.0504,0.0462,0.0469,0.0454,0.0454,0.0445,0.0445,0.0412,0.0437,0.0437,0.0437,0.0437,0,0.0752,0.0728,0.0706,0.0688,0.0661,0.0647,0.062,0.0606,0.0587,0.0566,0.0558,0.0538,0.052,0.0499,0.0487,0.0459,0.0452,0.0445,0.0442,0.0445,0.0446,0.0435,0.0436,0.0436,0.0436,0.0437,0.0437,0,0.0732,0.0717,0.0685,0.0659,0.0651,0.0633,0.061,0.0592,0.0579,0.0553,0.0546,0.0525,0.05,0.0483,0.045,0.0443,0.0411,0.0409,0.0419,0.0418,0.0404,0.0405,0.0361,0.0355,0.0385,0.0385,0.0385,0,0.0714,0.0696,0.0668,0.0653,0.064,0.0617,0.0601,0.0587,0.0571,0.0544,0.0529,0.0503,0.0481,0.044,0.0422,0.0397,0.0394,0.038,0.039,0.0394,0.0393,0.0394,0.0392,0.0378,0.0378,0.0378,0.0378,0,0.0684,0.0677,0.0655,0.0631,0.0612,0.0592,0.0572,0.0561,0.0543,0.0525,0.0499,0.0482,0.0449,0.0423,0.0396,0.0382,0.0377,0.0375,0.037,0.0373,0.038,0.0376,0.0414,0.0376,0.0376,0.0376,0.0376,0.0377,0.0664,0.0647,0.0625,0.0601,0.0585,0.0566,0.0548,0.0534,0.0512,0.0484,0.0477,0.0449,0.0427,0.0391,0.0376,0.0354,0.0356,0.0349,0.0347,0.0346,0.0345,0.0384,0.035,0.035,0.035,0.035,0.035,0,0.0633,0.0618,0.0596,0.0569,0.055,0.0548,0.0525,0.051,0.0486,0.0466,0.0445,0.0415,0.039,0.037,0.0344,0.0331,0.0328,0.0324,0.0325,0.0322,0.0345,0.0352,0.0327,0.0327,0.0327,0.0327,0.0327,0.0327,0.0614,0.0586,0.0577,0.054,0.0526,0.0499,0.0487,0.047,0.0454,0.0421,0.04,0.0388,0.0368,0.0341,0.0318,0.0313,0.0304,0.0301,0.0295,0.0318,0.032,0.0322,0.0328,0.0299,0.0299,0.0274,0.0273,0.0273]},{"header":{"parameterUnit":"m.s-1","parameterCategory":1,"la1":30.2991,"la2":30.254,"lo1":-89.0895,"lo2":-89.0444,"dy":0.0017,"dx":0.0017,"nx":28,"ny":28,"refTime":"2025-12-05T03:00:00:Z","depth":0,"parameterNumber":3,"parameterNumberName":"V-component_of_WINDS"},"data":[0,0,0,0,0,0,0,0,0,0,0,0,0,0,0,0,0,0,0,0,0,0,0,0,0,0,0,0,0,0,0,0,0,0,0,0,0,0,0,0,0,0,0,0,0,0,0,0,0,0,0,0,0,0,0,0,0,0,-2.2235,-2.2235,0,-2.2297,-2.2298,-2.2299,-2.2301,-2.2301,-2.23,-2.2299,-2.2362,-2.2364,-2.2366,0,0,0,0,0,0,0,0,0,0,0,0,0,-2.2115,-2.2117,-2.2234,-2.2235,-2.2236,-2.2297,-2.2298,-2.2299,-2.2301,-2.23,-2.23,-2.2299,-2.2361,-2.2364,-2.2366,0,0,0,0,0,0,0,0,0,0,0,0,0,-2.2171,-2.2118,-2.2234,-2.2245,-2.2246,-2.2297,-2.2298,-2.2299,-2.2302,-2.23,-2.2299,-2.2298,-2.236,-2.2363,-2.2367,-2.2411,0,0,-2.2378,-2.2379,0,0,0,0,0,0,0,0,-2.2168,-2.2176,-2.2242,-2.2244,-2.2246,-2.229,-2.2279,-2.2336,-2.2302,-2.2281,-2.2299,-2.2298,-2.2339,-2.2344,-2.2358,-2.2414,-2.2416,-2.2378,-2.238,-2.2382,-2.2383,0,0,0,0,0,0,0,-2.2164,-2.2173,-2.2259,-2.2243,-2.2246,-2.2246,-2.2252,-2.229,-2.2315,-2.2282,-2.2283,-2.229,-2.2339,-2.2355,-2.2359,-2.2417,-2.2378,-2.2381,-2.2383,-2.2384,-2.2512,-2.2513,0,0,0,0,0,0,-2.2158,-2.217,-2.2257,-2.2261,-2.2204,-2.2249,-2.2256,-2.2277,-2.2315,-2.2319,-2.2291,-2.229,-2.2349,-2.2355,-2.2362,-2.2415,-2.2381,-2.2385,-2.2387,-2.251,-2.2512,-2.2513,0,0,0,0,0,0,-2.2156,-2.2166,-2.2255,-2.2216,-2.2227,-2.2252,-2.2275,-2.2279,-2.2294,-2.2321,-2.2326,-2.2302,-2.2348,-2.2357,-2.2399,-2.2417,-2.2386,-2.239,-2.2509,-2.2511,-2.2513,-2.2523,0,0,0,0,0,0,-2.2152,-2.2165,-2.2183,-2.2216,-2.2229,-2.2291,-2.2277,-2.2281,-2.2301,-2.23,-2.2333,-2.2337,-2.2348,-2.2393,-2.2402,-2.2422,-2.2392,-2.2507,-2.251,-2.2512,-2.2521,-2.2525,-2.2528,0,0,0,0,0,-2.2148,-2.2183,-2.2184,-2.2194,-2.2251,-2.2292,-2.23,-2.2312,-2.2302,-2.2319,-2.2337,-2.2336,-2.2414,-2.2398,-2.2407,-2.2428,-2.2506,-2.2509,-2.2512,-2.2519,-2.2524,-2.2528,0,0,0,0,0,0,-2.2151,-2.2187,-2.2189,-2.2235,-2.2261,-2.2293,-2.2315,-2.2317,-2.2345,-2.2343,-2.2357,-2.2365,-2.2406,-2.2422,-2.2403,-2.2473,-2.2459,-2.2464,-2.2461,-2.2466,-2.247,-2.2465,-2.2395,0,0,0,0,0,-2.2157,-2.2188,-2.2218,-2.2256,-2.2269,-2.229,-2.2308,-2.2316,-2.2342,-2.2353,-2.2373,-2.2398,-2.2429,-2.2448,-2.2478,-2.2523,-2.253,-2.2543,-2.2546,-2.2549,-2.2553,-2.2578,-2.2584,-2.2523,-2.2523,-2.2523,0,0,-2.217,-2.2193,-2.2212,-2.2257,-2.2278,-2.2309,-2.2299,-2.2332,-2.2355,-2.2358,-2.2398,-2.2414,-2.2443,-2.2487,-2.2508,-2.2501,-2.2572,-2.2553,-2.2555,-2.2557,-2.2582,-2.2587,-2.2592,-2.2525,-2.2524,-2.2524,0,0,-2.2208,-2.223,-2.2264,-2.2285,-2.2316,-2.233,-2.2338,-2.237,-2.2381,-2.2422,-2.2425,-2.2452,-2.2504,-2.2524,-2.2541,-2.2588,-2.2588,-2.2597,-2.2616,-2.264,-2.2645,-2.2649,-2.2665,-2.2671,-2.2601,-2.2601,-2.2601,0,-2.222,-2.2267,-2.2281,-2.2314,-2.2334,-2.2338,-2.2372,-2.2392,-2.2431,-2.2444,-2.2437,-2.2502,-2.2522,-2.257,-2.2582,-2.2596,-2.2605,-2.2593,-2.2643,-2.2648,-2.2652,-2.2667,-2.2673,-2.2602,-2.2602,-2.2602,-2.2602,0,-2.228,-2.2312,-2.2336,-2.2374,-2.2397,-2.243,-2.2448,-2.2469,-2.2474,-2.2489,-2.253,-2.2554,-2.2589,-2.2601,-2.2606,-2.265,-2.2645,-2.264,-2.2626,-2.2658,-2.2673,-2.2679,-2.2603,-2.2603,-2.2602,-2.2602,0,0,-2.2322,-2.2367,-2.2376,-2.2393,-2.2428,-2.2453,-2.2487,-2.252,-2.2538,-2.2565,-2.2592,-2.2636,-2.2632,-2.2651,-2.2659,-2.2681,-2.2715,-2.2673,-2.2674,-2.268,-2.2764,-2.2767,-2.2774,-2.2716,-2.2717,-2.2718,-2.2762,0,-2.2364,-2.2424,-2.2437,-2.2489,-2.2519,-2.2524,-2.2553,-2.2577,-2.2591,-2.2618,-2.2634,-2.2664,-2.2657,-2.2668,-2.269,-2.2707,-2.2732,-2.2704,-2.2741,-2.2742,-2.2733,-2.2782,-2.2785,-2.2825,-2.2767,-2.2768,-2.2769,0,-2.2421,-2.245,-2.2505,-2.2536,-2.2549,-2.2575,-2.2607,-2.2633,-2.266,-2.2669,-2.2691,-2.2696,-2.2731,-2.2716,-2.2762,-2.2743,-2.2759,-2.2769,-2.2771,-2.2775,-2.2757,-2.2786,-2.2838,-2.2844,-2.2778,-2.2778,-2.2777,0,-2.2446,-2.2498,-2.2538,-2.2552,-2.2589,-2.2607,-2.2624,-2.265,-2.2669,-2.2697,-2.271,-2.2741,-2.2758,-2.2781,-2.2795,-2.2783,-2.2841,-2.2827,-2.2849,-2.2848,-2.286,-2.2859,-2.2915,-2.2871,-2.2871,-2.2871,-2.2871,0,-2.2491,-2.2525,-2.2549,-2.2573,-2.261,-2.2625,-2.2661,-2.2677,-2.27,-2.2727,-2.2733,-2.2758,-2.2775,-2.2802,-2.2813,-2.285,-2.2858,-2.2865,-2.2868,-2.2864,-2.2863,-2.2875,-2.2872,-2.2873,-2.2872,-2.2872,-2.2872,0,-2.2525,-2.2543,-2.2586,-2.2618,-2.2626,-2.2652,-2.2679,-2.2702,-2.2717,-2.2751,-2.2759,-2.2782,-2.2814,-2.283,-2.287,-2.2877,-2.2919,-2.292,-2.291,-2.2911,-2.2931,-2.2929,-2.2996,-2.3005,-2.2956,-2.2956,-2.2957,0,-2.2552,-2.2578,-2.2613,-2.2631,-2.2648,-2.2678,-2.2698,-2.2713,-2.2734,-2.2767,-2.2786,-2.2819,-2.2846,-2.2897,-2.2916,-2.2947,-2.2948,-2.2969,-2.2953,-2.2948,-2.2948,-2.2946,-2.2948,-2.2972,-2.2973,-2.2973,-2.2973,0,-2.2599,-2.2607,-2.2636,-2.2668,-2.2692,-2.2718,-2.2743,-2.2758,-2.2777,-2.2799,-2.2833,-2.2854,-2.2895,-2.2927,-2.2959,-2.2975,-2.2977,-2.2979,-2.2985,-2.2982,-2.2975,-2.2979,-2.2917,-2.2977,-2.2977,-2.2976,-2.2976,-2.2976,-2.263,-2.2653,-2.2681,-2.2713,-2.2734,-2.2758,-2.2781,-2.2798,-2.2827,-2.2862,-2.2869,-2.2904,-2.293,-2.2973,-2.299,-2.3018,-2.3013,-2.3022,-2.3025,-2.3027,-2.3028,-2.2971,-2.3024,-2.3023,-2.3023,-2.3023,-2.3023,0,-2.2677,-2.2696,-2.2725,-2.276,-2.2785,-2.2786,-2.2814,-2.2835,-2.2866,-2.289,-2.2917,-2.2955,-2.2986,-2.3008,-2.304,-2.3057,-2.3059,-2.3065,-2.3063,-2.3067,-2.303,-2.3021,-2.3063,-2.3063,-2.3063,-2.3063,-2.3063,-2.3063,-2.2705,-2.2743,-2.2754,-2.2803,-2.2821,-2.2856,-2.2872,-2.2893,-2.2913,-2.2955,-2.2982,-2.2996,-2.3019,-2.3053,-2.3081,-2.3087,-2.3098,-2.3103,-2.3109,-2.3074,-2.307,-2.3066,-2.3057,-2.3106,-2.3106,-2.3143,-2.3144,-2.3144]}]]